Flag for U.S.A. Weather past 2 weeks in Osage City, Kansas, U.S.A.

Now
36 °F

Light rain. Fog.


Feels Like: 36 °F
Forecast: 35 / 42 °F
Wind: No wind

Location: Forbes Field

Current Time: Jan 31, 2015 at 7:12:24 AM

Latest Report: Jan 31, 2015 at 5:53 AM


Visibility: 4 mi

Pressure: 30.25 "Hg

Humidity: 92%

Dew point: 34 °F

Location of Osage CityLocation

Historic Weather in Osage City — Graph

°F

Osage City temperature yesterday

Maximum temperature yesterday: 42 °F (at 3:53 PM)
Minimum temperature yesterday: 18 °F (at 5:53 AM)
Average temperature yesterday: 31 °F

Past Weeks' High & Low Weather Summary

 TemperatureHumidityPressure
High79 °F (Jan 28, 2:53 PM)92% (Jan 31, 5:53 AM)30.59 "Hg (Jan 31, 5:53 AM)
Low16 °F (Jan 23, 4:53 AM)19% (Jan 16, 2:53 PM)29.66 "Hg (Jan 28, 2:53 PM)
Average41 °F58%30.10 "Hg
* Reported Jan 16 5:53 AM — Jan 31 5:53 AM, Osage City, Weather by CustomWeather, © 2014

Note: Actual official high and low records may vary slightly from our data, if they occured in-between our weather recording intervals... More about our weather records

Advertising

Osage City weather history for previous 24 hours

 ConditionsComfort  
Time TempWeatherWind HumidityBarometerVisibility
5:53 AM
Jan 31
36 °FLight rain. Fog.No wind92%30.25 "Hg4 mi
4:53 AM36 °FLight rain. Fog.No wind89%30.26 "Hg4 mi
4:04 AM36 °FLight rain. Overcast.3 mph89%30.26 "Hg7 mi
3:53 AM36 °FLight rain. Fog.3 mph89%30.27 "Hg6 mi
2:53 AM36 °FLight rain. Overcast.No wind89%30.29 "Hg8 mi
1:53 AM37 °FLight rain. Overcast.No wind79%30.31 "Hg9 mi
12:53 AM37 °FLight rain. Overcast.7 mph76%30.32 "Hg7 mi
11:53 PM
Jan 30
38 °FLight rain. Mostly cloudy.7 mph68%30.34 "Hg9 mi
10:53 PM38 °FOvercast.7 mph58%30.35 "Hg10 mi
9:53 PM39 °FClear.9 mph55%30.37 "Hg10 mi
8:53 PM37 °FClear.7 mph60%30.38 "Hg10 mi
7:53 PM36 °FClear.6 mph59%30.40 "Hg10 mi
6:53 PM37 °FClear.6 mph57%30.40 "Hg10 mi
5:53 PM38 °FClear.5 mph53%30.42 "Hg10 mi
4:53 PM41 °FSunny.6 mph47%30.42 "Hg10 mi
3:53 PM42 °FSunny.10 mph43%30.43 "Hg10 mi
2:53 PM41 °FSunny.3 mph47%30.47 "Hg10 mi
1:53 PM40 °FSunny.6 mph51%30.48 "Hg10 mi
12:53 PM38 °FSunny.6 mph55%30.52 "Hg10 mi
11:53 AM34 °FSunny.7 mph64%30.56 "Hg10 mi
10:53 AM32 °FSunny.3 mph66%30.58 "Hg10 mi
9:53 AM29 °FSunny.3 mph79%30.58 "Hg9 mi
8:53 AM26 °FSunny.5 mph84%30.59 "Hg8 mi
7:53 AM19 °FIce fog.No wind85%30.57 "Hg6 mi
Weather by CustomWeather, © 2014

See weather overviewHow to use our weather pages